Location: Newark
(48.8833°N, 0.9236°W)
Time: 00:10:32
(UTC+00:00)

Tiros 1 despin weight - Pass Details

Date: 19 November 2019
Orbit: 594 x 642 km, 48.2° (Epoch: 06 December)

Event Time Altitude Azimuth Distance (km) Brightness Sun altitude
Rises 14:13:03 0° 241° (WSW) 2,823 ? 14.5°
Reaches altitude 10° 14:15:22 10° 237° (WSW) 1,925 ? 14.3°
Maximum altitude 14:19:40 55° 160° (SSE) 719 ? 13.9°
Drops below altitude 10° 14:24:02 10° 83° (E) 1,947 ? 13.4°
Sets 14:26:22 0° 79° (E) 2,859 ? 13.2°
